Location: Hopville
(44.8032°N, 123.1329°W)
Time: 04:48:20
(UTC+00:00)

Cosmos 1092 Rocket - Pass Details

Date: 24 January 2021
Orbit: 954 x 995 km, 83.0° (Epoch: 26 February)

Event Time Altitude Azimuth Distance (km) Brightness Sun altitude
Rises 13:43:20 0° 352° (N) 3,643 6.9 -20.5°
Reaches altitude 10° 13:45:50 10° 354° (N) 2,695 6.2 -20.1°
Maximum altitude 13:52:00 81° 81° (E) 976 4.0 -19.0°
Drops below altitude 10° 13:58:11 10° 170° (S) 2,695 6.6 -17.9°
Sets 14:00:41 0° 171° (S) 3,643 7.2 -17.5°
